Temperature
16 16 15 15 15 15 15 15 15 15 15 15 15 15 15 15 15 15 15 15 15 15 15 15 15 15 15 15 15 15 15 15 15 15 15 15 15 15 15 15 15 15 15
15 15 15 15 15 15 15 15 15 15 15 15 15 15 15 15 15 14 14 14 15 15 15 15 15 15 15 15 15 15 15 15 15 15 15 15 15 15 15 15 15 15 15
15 15 15 15 15 15 15 15 15 14 14 14 14 14 14 14 14 14 14 14 14 14 15 15 15 15 15 15 15 15 15 15 15 14 15 15 15 15 15 15 15 15 15
15 15 15 15 14 14 14 14 14 14 14 14 14 14 14 14 14 14 14 14 14 14 14 14 14 15 15 14 14 14 14 14 14 14 14 14 14 14 14 14 14 14 14
15 15 14 14 14 14 14 14 14 14 14 14 14 14 14 14 14 14 14 14 14 14 14 14 14 14 14 14 14 14 14 14 14 14 14 14 14 14 14 14 14 14 14
14 14 14 14 14 14 14 14 13 13 13 13 14 14 14 14 14 14 14 14 14 14 14 14 14 14 14 14 14 14 14 14 14 14 14 14 14 14 14 14 14 14 14
14 14 14 14 14 13 13 13 13 13 13 13 13 13 14 14 14 13 13 13 14 13 14 14 13 13 13 13 13 13 14 14 13 13 13 13 13 13 13 13 13 13 13
14 14 14 13 13 13 13 13 13 13 13 13 13 14 14 14 13 13 13 13 13 13 13 13 13 13 13 13 13 13 13 13 13 13 13 13 13 13 13 13 13 13 13
14 14 13 13 13 13 13 13 13 13 13 13 13 13 14 14 13 13 13 13 13 13 13 13 13 13 13 13 13 13 13 13 13 13 13 13 13 13 13 13 13 13 13
13 13 13 13 13 13 13 13 12 12 12 12 12 13 13 13 13 14 13 13 13 13 13 13 13 13 13 13 13 13 13 13 13 13 13 13 13 13 12 12 12 12 12
13 13 13 13 13 13 12 12 12 12 12 12 12 12 12 12 13 13 13 13 13 12 12 13 13 13 13 13 13 13 13 13 13 13 13 13 12 12 12 12 12 12 12
13 13 13 13 12 12 12 12 12 12 12 12 12 12 12 12 12 13 13 13 13 12 12 12 12 13 13 13 13 13 13 13 13 13 13 12 12 12 12 12 12 12 12
12 12 12 12 12 12 12 12 12 12 12 12 12 12 12 12 12 12 12 13 12 12 12 12 12 12 12 12 13 13 13 13 13 13 12 12 12 12 12 12 12 12 12
12 12 12 12 12 12 12 12 12 12 12 11 11 11 11 11 12 12 12 12 12 13 12 12 12 12 12 12 12 13 12 12 12 12 12 12 12 12 12 12 12 11 11
12 12 12 12 12 12 12 12 11 11 11 11 11 11 11 11 11 11 11 12 12 13 13 12 12 12 12 12 12 12 12 12 12 12 12 12 12 12 12 11 11 11 11
12 12 12 12 12 12 11 11 11 11 11 11 11 11 11 11 11 11 11 11 11 12 12 12 11 11 11 12 12 11 12 12 12 12 12 12 12 12 11 11 11 11 11
12 12 11 11 11 11 11 11 11 11 11 11 11 11 11 11 11 11 11 11 11 11 11 11 11 11 11 11 11 11 11 11 11 11 11 11 11 11 11 11 11 11 11
12 11 11 11 11 11 11 11 11 11 11 11 11 11 11 11 11 11 11 11 11 11 11 11 11 11 11 11 11 11 11 11 11 11 11 11 11 11 11 11 11 11 11
12 11 11 11 11 11 11 11 11 11 11 11 11 11 11 11 11 11 11 11 11 11 11 11 11 11 11 11 11 11 11 11 11 11 11 11 11 11 11 11 11 11 10
11 11 11 11 11 11 11 11 11 11 11 11 11 11 11 11 11 11 11 11 11 10 10 10 10 10 10 11 10 11 11 11 11 10 11 11 11 11 11 11 10 10 10
11 11 11 11 11 11 11 11 11 11 11 11 11 10 10 11 11 11 10 10 10 10 10 10 10 10 10 10 10 10 10 10 10 10 10 10 10 10 10 10 10 10 10
11 10 10 10 10 11 11 11 11 10 10 10 10 10 10 10 10 10 10 10 10 10 10 10 10 10 10 10 10 10 10 10 9 10 10 10 10 10 10 10 10 10 10
10 10 10 10 10 10 11 11 11 10 10 10 10 10 10 10 10 10 10 10 10 10 10 10 9 9 9 10 9 9 9 9 9 9 9 9 9 10 10 10 10 10 10
10 10 10 10 10 10 10 10 10 10 10 10 10 10 10 10 10 10 10 10 10 10 10 10 9 9 9 9 9 9 9 9 9 9 9 9 9 9 9 9 10 10 10
10 10 10 10 10 10 10 10 10 9 9 9 9 9 9 9 9 9 9 9 9 9 10 10 9 9 9 9 9 8 8 8 8 9 9 9 9 9 9 9 9 9 9
10 10 9 9 9 9 9 9 9 9 9 9 9 9 9 9 9 9 9 9 9 9 9 9 9 9 9 9 8 8 8 8 8 8 8 8 8 8 8 8 9 9 9
Wind_Speed
3 3 3 3 3 3 3 3 3 4 5 5 5 6 6 6 6 5 6 10 10 9 8 8 7 8 8 8 8 8 8 8 9 10 11 10 9 8 8 8 7 7 7
3 3 3 3 3 3 3 3 3 3 3 4 4 5 5 5 5 5 5 6 9 10 9 8 7 8 8 8 8 9 9 9 9 10 10 10 9 8 8 8 8 8 7
3 3 3 3 3 3 2 3 3 3 2 2 3 3 4 4 4 4 5 5 5 8 9 8 7 7 7 8 8 9 9 9 9 11 11 11 10 10 10 9 8 8 9
4 3 2 3 3 2 2 2 2 2 2 2 2 2 2 3 2 3 4 4 4 4 7 8 7 7 7 7 7 8 9 9 10 10 11 11 11 11 11 11 10 10 10
3 3 2 2 2 1 1 2 2 2 2 2 2 2 2 2 2 2 3 3 4 4 5 7 7 7 7 8 8 8 8 8 9 9 9 9 9 10 10 11 12 12 11
2 2 1 1 1 1 1 1 2 1 1 1 1 1 2 1 1 2 2 3 3 4 5 5 4 6 7 7 7 7 7 7 8 8 8 8 8 9 9 10 11 11 11
1 1 1 1 1 1 1 1 1 1 1 1 0 0 1 1 1 1 1 1 2 3 3 3 3 3 4 6 6 6 7 7 7 7 8 8 8 9 9 10 10 10 10
1 1 1 0 0 0 0 0 0 0 1 1 1 1 1 1 1 0 0 1 1 2 2 2 2 2 2 3 6 6 6 6 6 6 7 8 8 8 8 9 9 9 9
0 0 1 0 0 0 1 1 1 1 1 1 2 1 1 1 0 1 0 0 0 1 0 1 1 1 1 2 3 5 5 5 5 5 6 6 7 7 7 7 7 8 8
1 1 1 1 1 1 1 2 1 2 2 1 1 1 2 2 2 1 1 1 1 1 1 1 0 0 0 1 2 4 5 4 4 4 5 6 6 6 6 6 7 7 7
1 1 1 2 2 1 2 2 2 2 3 3 2 2 2 2 4 2 1 1 1 1 1 1 1 1 0 1 1 3 5 5 4 4 5 5 6 6 6 6 7 7 7
2 1 2 2 2 2 2 3 3 3 3 3 3 2 2 2 2 2 3 3 2 2 2 1 1 1 0 1 1 3 5 5 4 4 4 5 5 5 5 5 6 6 5
2 2 2 3 2 3 3 3 3 3 4 4 3 3 3 3 2 3 3 3 3 2 2 2 2 1 1 1 1 3 4 5 5 5 5 5 5 4 5 4 5 4 4
3 3 3 3 3 3 3 3 3 3 3 4 4 4 3 3 3 3 3 3 3 3 3 3 2 2 1 1 1 2 3 6 6 6 6 5 5 5 4 4 4 4 3
3 3 3 3 3 3 3 3 3 4 3 4 4 4 4 3 3 3 3 4 4 4 4 2 2 1 1 1 1 2 3 5 7 7 6 6 6 6 5 5 4 4 3
3 3 3 3 3 4 4 4 4 4 4 4 3 5 4 4 4 4 4 4 4 5 4 2 2 2 2 2 2 3 2 4 7 7 7 7 7 7 6 6 5 5 5
4 4 4 4 4 4 4 4 5 5 5 5 5 5 6 5 4 4 4 4 4 4 5 4 2 2 3 3 2 4 3 4 5 8 8 8 8 8 8 7 7 6 6
5 5 4 5 4 4 4 5 5 5 6 6 6 6 6 5 5 5 4 5 5 5 5 5 3 3 4 4 3 4 4 5 5 7 8 8 9 9 9 8 8 7 7
5 5 5 5 5 5 5 5 6 6 6 7 7 6 6 6 6 5 5 5 4 4 4 5 4 2 3 3 3 4 4 4 5 5 8 8 9 9 9 9 9 9 8
5 5 5 5 5 5 6 6 7 7 7 6 6 6 6 6 6 6 5 6 5 4 4 4 4 3 3 3 3 4 4 4 5 5 5 6 8 9 10 10 10 10 10
6 6 6 6 6 5 5 6 6 6 6 6 6 6 6 6 5 5 4 5 5 5 4 4 4 4 4 3 4 4 5 5 5 5 5 5 6 7 8 10 11 11 11
6 6 6 6 6 5 3 5 6 6 7 6 6 6 6 6 6 6 5 5 5 6 6 5 5 5 6 6 5 5 5 4 4 4 5 5 5 6 7 8 8 10 11
7 7 7 7 7 6 4 4 6 7 7 6 6 6 4 4 5 6 5 6 7 7 7 7 7 7 7 6 5 6 6 6 5 4 5 5 5 6 6 6 7 10 11
6 6 6 7 6 5 4 4 5 7 7 7 7 6 5 5 4 5 5 5 6 6 7 7 7 7 6 6 6 6 6 6 5 4 4 5 5 6 6 6 9 11 11
6 6 6 6 7 6 4 4 5 6 6 7 6 6 6 6 3 4 6 6 6 6 5 6 7 6 5 4 4 4 4 4 5 5 5 4 5 5 5 6 7 11 11
5 6 6 6 6 6 3 3 4 5 6 6 5 5 4 4 4 3 6 6 7 6 5 5 6 7 7 6 6 7 6 6 5 5 5 5 4 4 4 5 5 7 9
Wind_Direction
70 74 72 67 67 71 76 68 68 68 61 57 54 54 56 55 50 54 66 56 45 46 51 60 69 76 79 80 82 87 85 80 78 80 84 89 92 91 88 87 87 90 91
63 65 68 71 66 67 65 69 71 71 60 54 52 52 52 53 48 48 55 69 62 49 47 58 70 75 81 83 86 87 88 91 89 87 86 84 84 85 86 87 85 85 88
59 57 56 66 67 69 68 61 67 65 63 56 55 51 51 46 40 41 51 47 62 64 53 54 65 74 80 84 86 88 87 87 88 87 87 87 84 81 81 83 83 88 88
64 64 58 58 55 58 57 56 51 58 59 47 44 43 52 53 42 37 44 48 45 52 65 60 64 72 79 82 86 90 86 86 90 88 86 86 84 82 81 79 79 88 89
67 73 58 50 56 55 62 59 50 46 47 43 44 38 35 36 40 45 42 44 50 50 55 73 81 73 78 82 87 90 89 87 93 94 93 90 87 85 84 83 84 86 90
64 73 76 62 60 66 68 78 73 58 46 46 42 42 32 24 29 35 39 45 42 43 43 47 73 89 85 81 85 90 91 90 93 98 98 95 93 92 90 90 89 89 89
61 67 61 62 48 72 71 94 83 86 45 6 275 75 120 72 39 43 36 39 51 42 41 50 50 64 98 101 90 89 89 92 94 99 100 99 101 98 95 94 92 90 91
59 48 43 66 111 109 152 91 36 313 15 322 310 278 231 187 109 65 24 20 27 53 36 43 61 69 78 103 98 97 92 94 102 107 108 105 105 104 101 101 99 96 95
180 69 18 329 277 210 236 248 219 238 276 294 316 309 292 286 268 160 318 279 360 5 351 24 54 60 91 110 115 118 114 114 117 122 118 115 113 113 111 106 108 105 102
223 233 263 263 252 250 251 254 250 256 264 274 284 303 305 319 274 238 214 254 301 307 307 297 347 358 100 114 113 103 124 134 138 138 134 132 129 127 123 115 113 111 106
228 237 259 256 255 256 262 264 264 259 255 268 273 260 258 272 268 270 254 262 245 241 258 282 291 316 278 182 162 135 139 144 143 146 141 137 136 134 131 130 128 121 115
219 237 260 253 256 258 260 261 258 255 262 264 266 258 252 249 258 257 261 254 255 253 236 223 250 266 255 203 165 119 151 154 150 147 140 138 135 138 139 136 137 135 134
225 235 243 251 257 257 256 256 256 256 253 253 255 259 262 267 277 272 267 264 266 255 246 225 211 224 231 210 157 136 161 166 160 154 150 146 139 140 143 146 147 143 149
242 248 252 255 258 257 250 243 253 254 253 251 254 256 258 263 260 262 264 264 260 249 237 233 211 201 222 215 113 188 171 178 176 172 167 164 159 157 156 159 161 163 160
245 249 248 250 251 251 251 246 247 251 253 256 257 254 253 253 249 251 256 263 267 262 247 227 221 217 229 211 171 207 203 175 186 185 183 180 176 176 178 180 182 180 178
243 242 245 253 254 251 249 246 248 250 248 252 263 264 256 247 242 242 246 250 257 267 262 243 231 217 215 224 219 227 221 172 188 190 194 192 188 186 187 189 190 193 189
247 248 250 255 257 255 253 246 247 242 246 248 249 259 259 251 240 239 243 245 249 253 255 250 245 235 216 225 214 229 225 215 199 191 200 200 197 193 194 195 199 198 197
249 249 250 252 255 258 257 252 249 247 248 251 254 259 262 252 245 243 241 242 243 245 251 253 242 233 234 229 228 239 235 222 218 188 199 204 204 202 202 203 207 207 205
241 242 247 248 251 253 253 252 252 249 251 254 254 258 262 254 245 239 241 245 245 245 247 250 247 234 237 233 237 244 235 226 226 196 196 203 209 210 209 207 208 208 205
241 242 247 249 250 252 254 256 254 252 253 256 258 257 260 258 256 249 242 245 243 242 240 245 244 232 229 234 235 234 226 219 226 214 204 209 208 211 214 212 211 211 210
246 246 248 251 254 253 260 265 260 256 256 255 257 258 259 263 273 270 258 248 240 241 238 239 242 236 228 221 231 228 230 224 224 214 214 216 212 215 214 215 215 217 216
247 248 249 251 255 253 267 275 272 258 256 255 259 262 258 244 242 243 255 256 249 245 244 240 241 243 242 237 239 234 231 225 230 208 216 224 217 224 222 220 204 209 214
245 247 249 251 254 254 250 252 261 259 256 256 259 261 263 266 251 250 239 234 237 238 246 251 252 255 252 245 238 238 233 233 243 217 209 227 219 232 230 223 198 203 213
247 246 248 250 253 252 246 248 253 251 254 254 253 255 257 262 267 264 258 248 248 242 237 246 256 260 259 255 242 244 246 242 249 226 208 234 228 235 235 226 197 203 212
250 248 246 249 250 249 237 240 247 254 255 256 255 253 254 259 276 264 256 256 255 251 228 230 252 264 271 257 245 239 234 231 238 230 211 231 238 239 239 230 207 200 209
256 256 251 250 251 255 243 242 251 251 255 256 258 256 240 262 280 253 253 256 258 261 256 241 239 243 244 230 214 232 233 234 240 238 206 216 228 228 237 230 218 206 207
Height
1541 1540 1540 1539 1539 1539 1539 1538 1538 1538 1538 1537 1537 1536 1536 1535 1535 1535 1534 1532 1532 1531 1531 1530 1530 1530 1529 1529 1528 1528 1527 1526 1525 1524 1523 1525 1527 1528 1529 1529 1529 1529 1529
1541 1541 1541 1540 1540 1539 1539 1539 1539 1538 1538 1537 1537 1537 1536 1536 1535 1535 1534 1533 1532 1532 1531 1531 1531 1530 1530 1530 1529 1529 1528 1528 1527 1527 1527 1528 1528 1529 1529 1530 1530 1530 1530
1541 1541 1541 1540 1540 1540 1539 1539 1539 1539 1538 1538 1537 1537 1536 1536 1536 1535 1534 1534 1533 1532 1532 1531 1531 1531 1531 1531 1530 1530 1530 1529 1529 1529 1529 1529 1530 1530 1530 1530 1530 1530 1531
1541 1541 1540 1540 1540 1539 1539 1539 1539 1539 1538 1538 1538 1537 1536 1536 1535 1535 1535 1534 1534 1533 1532 1532 1532 1531 1531 1531 1531 1531 1531 1531 1530 1530 1531 1531 1531 1531 1531 1531 1531 1531 1531
1541 1541 1540 1540 1540 1539 1539 1539 1539 1539 1538 1538 1537 1537 1536 1536 1536 1535 1535 1535 1535 1534 1534 1533 1532 1532 1532 1532 1532 1532 1532 1531 1532 1532 1532 1532 1532 1532 1532 1532 1532 1532 1532
1541 1541 1540 1540 1540 1539 1539 1539 1538 1538 1538 1538 1537 1537 1536 1536 1536 1535 1535 1535 1535 1534 1534 1533 1533 1533 1533 1533 1533 1532 1532 1532 1532 1532 1532 1532 1533 1533 1533 1533 1533 1533 1533
1541 1540 1540 1540 1539 1539 1539 1538 1538 1538 1538 1538 1538 1537 1537 1536 1536 1535 1536 1535 1535 1534 1534 1534 1534 1534 1534 1533 1533 1533 1533 1533 1533 1533 1533 1533 1533 1533 1533 1534 1534 1534 1534
1540 1540 1540 1539 1538 1538 1538 1538 1537 1538 1538 1537 1538 1537 1537 1538 1536 1535 1535 1535 1535 1534 1534 1534 1534 1534 1534 1534 1533 1533 1533 1533 1533 1533 1533 1533 1534 1534 1534 1534 1535 1535 1535
1539 1539 1539 1539 1538 1538 1538 1537 1537 1537 1537 1537 1537 1538 1537 1536 1536 1536 1535 1534 1534 1534 1534 1534 1534 1534 1534 1534 1534 1533 1533 1533 1533 1533 1534 1534 1534 1534 1534 1535 1535 1535 1536
1539 1538 1538 1538 1537 1537 1537 1537 1536 1536 1536 1536 1536 1536 1536 1536 1536 1535 1535 1534 1533 1533 1533 1533 1533 1533 1533 1533 1533 1533 1533 1533 1533 1533 1533 1534 1534 1534 1534 1535 1535 1535 1536
1537 1537 1537 1537 1536 1536 1536 1535 1535 1535 1535 1535 1535 1535 1534 1534 1534 1534 1533 1533 1533 1532 1532 1532 1532 1532 1532 1532 1532 1532 1532 1532 1533 1533 1533 1533 1533 1534 1534 1535 1535 1535 1535
1536 1536 1536 1535 1535 1535 1534 1534 1534 1533 1533 1533 1533 1533 1533 1533 1533 1533 1532 1532 1531 1531 1531 1530 1530 1530 1530 1530 1530 1530 1531 1531 1532 1532 1532 1533 1533 1533 1534 1534 1535 1535 1535
1535 1535 1534 1534 1534 1533 1533 1533 1532 1532 1532 1532 1531 1531 1531 1531 1531 1531 1531 1530 1530 1530 1529 1529 1528 1528 1528 1528 1528 1528 1529 1530 1530 1531 1531 1532 1532 1533 1533 1534 1534 1534 1535
1534 1533 1533 1533 1532 1532 1531 1531 1531 1531 1531 1530 1530 1529 1529 1529 1529 1529 1529 1529 1528 1528 1528 1528 1527 1526 1526 1526 1526 1526 1527 1528 1529 1529 1530 1531 1531 1531 1532 1532 1533 1533 1534
1532 1531 1531 1531 1531 1530 1530 1529 1529 1529 1529 1528 1528 1528 1527 1527 1526 1526 1526 1526 1527 1526 1526 1525 1525 1524 1524 1523 1524 1524 1525 1525 1527 1527 1528 1529 1529 1530 1530 1531 1531 1532 1532
1530 1530 1530 1529 1529 1528 1528 1527 1527 1527 1527 1526 1525 1525 1525 1525 1524 1524 1523 1523 1524 1524 1523 1523 1522 1521 1521 1521 1521 1522 1523 1523 1524 1525 1526 1527 1527 1528 1528 1529 1529 1530 1530
1528 1528 1527 1527 1527 1526 1526 1525 1525 1524 1524 1524 1523 1523 1522 1522 1521 1521 1520 1520 1520 1520 1520 1520 1519 1519 1519 1519 1519 1519 1520 1520 1521 1522 1523 1524 1525 1525 1526 1527 1527 1527 1528
1525 1525 1525 1525 1524 1524 1523 1523 1522 1522 1522 1521 1521 1520 1520 1519 1518 1518 1518 1517 1517 1517 1517 1517 1516 1516 1516 1516 1516 1516 1517 1517 1518 1518 1520 1521 1522 1522 1523 1524 1524 1525 1525
1522 1522 1522 1522 1522 1521 1521 1520 1520 1519 1519 1518 1518 1517 1517 1516 1515 1515 1514 1514 1514 1514 1513 1514 1513 1513 1513 1513 1513 1513 1514 1515 1515 1515 1516 1517 1518 1519 1520 1521 1521 1522 1522
1519 1519 1519 1519 1518 1518 1518 1517 1516 1516 1516 1515 1514 1514 1513 1513 1512 1512 1511 1511 1511 1510 1510 1510 1510 1510 1510 1509 1510 1510 1511 1511 1512 1512 1513 1513 1514 1516 1517 1517 1518 1518 1519
1515 1515 1515 1515 1515 1515 1514 1514 1513 1513 1512 1511 1511 1510 1509 1509 1508 1508 1508 1507 1507 1507 1507 1507 1507 1507 1507 1506 1506 1507 1507 1508 1508 1509 1509 1510 1511 1512 1513 1513 1514 1515 1516
1511 1511 1511 1511 1511 1511 1510 1510 1509 1509 1508 1508 1507 1506 1506 1505 1504 1504 1504 1503 1503 1503 1503 1503 1503 1503 1503 1503 1503 1503 1504 1504 1505 1506 1506 1506 1507 1508 1509 1510 1510 1511 1512
1507 1507 1507 1507 1507 1507 1506 1506 1505 1505 1505 1504 1503 1503 1502 1502 1501 1501 1500 1499 1499 1499 1499 1500 1499 1499 1500 1500 1500 1500 1500 1501 1501 1502 1502 1503 1503 1504 1505 1505 1506 1507 1507
1503 1503 1503 1503 1503 1502 1502 1501 1501 1501 1501 1500 1500 1499 1498 1498 1497 1497 1497 1496 1495 1495 1495 1495 1496 1496 1496 1496 1496 1496 1496 1497 1498 1498 1498 1499 1500 1500 1501 1501 1501 1502 1503
1499 1499 1499 1499 1498 1498 1497 1497 1497 1497 1496 1496 1496 1495 1494 1494 1494 1493 1493 1493 1492 1492 1491 1491 1491 1491 1491 1492 1492 1492 1492 1493 1493 1493 1493 1494 1495 1496 1496 1496 1497 1497 1498
1495 1495 1494 1494 1494 1494 1493 1492 1492 1493 1492 1492 1491 1491 1490 1490 1490 1489 1489 1489 1489 1489 1488 1488 1488 1488 1488 1487 1487 1488 1488 1489 1489 1490 1489 1490 1491 1492 1492 1492 1493 1493 1493